Location: Bessat
(45.8735°N, 1.9924°E)
Time: 18:39:55
(UTC+00:00)

Meteor 2-9 Rocket - Pass Details

Date: 11 May 2021
Orbit: 791 x 895 km, 81.3° (Epoch: 21 June)

Event Time Altitude Azimuth Distance (km) Brightness Sun altitude
Rises 22:19:05 0° 352° (N) 3,503 8.7 -22.9°
Reaches altitude 10° 22:21:38 10° 357° (N) 2,549 7.7 -23.0°
Maximum altitude 22:27:20 56° 75° (ENE) 1,026 4.5 -23.4°
Enters shadow 22:28:32 47° 118° (ESE) 1,133 4.5 -23.5°
